Overview Statistics Trail Chart Weather Telemetry Raw packets
 

This is the latest recevied weather packets stored in our database for station/object KE8WMS. If no packets are shown the sender has not sent any weather packets the latest 10 day(s).

<< 57 58 59 60 61 62 63 >>
Time Temp. Humidity Pressure Rain* Wind** Luminosity Snow
1777467563 11.67° C 99% 1006.4 hPa 3.05 mm - 71 W/m² -
1777467258 11.67° C 99% 1006.3 hPa 6.1 mm - 79 W/m² -
1777466955 11.11° C 99% 1006.7 hPa 4.83 mm - 25 W/m² -
1777466653 11.11° C 99% 1006.9 hPa 3.05 mm - 19 W/m² -
1777466349 11.11° C 99% 1006.9 hPa 4.32 mm - 18 W/m² -
1777466045 11.11° C 99% 1006.2 hPa 3.05 mm - 6 W/m² -
1777465742 11.11° C 99% 1006.7 hPa 1.78 mm - 7 W/m² -
1777465438 11.67° C 99% 1007.1 hPa 1.78 mm - 25 W/m² -
1777465136 11.11° C 99% 1006.8 hPa 1.78 mm - 59 W/m² -
1777464832 11.11° C 99% 1006.3 hPa 1.27 mm - 42 W/m² -
1777464527 11.11° C 99% 1006.4 hPa 0 mm - 22 W/m² -
1777464225 11.11° C 99% 1006.4 hPa 0 mm - 28 W/m² -
1777463924 11.11° C 99% 1006.9 hPa 0 mm - 29 W/m² -
1777463620 11.11° C 99% 1006.8 hPa 0 mm - 39 W/m² -
1777463315 11.11° C 99% 1007.3 hPa 0 mm - 28 W/m² -
1777463012 10.56° C 99% 1007.6 hPa 0 mm - 26 W/m² -
1777462707 10.56° C 99% 1007.5 hPa 0 mm - 30 W/m² -
1777462402 10.56° C 99% 1007.5 hPa 0 mm - 15 W/m² -
1777462100 10.56° C 99% 1007.6 hPa 1.78 mm - 10 W/m² -
1777461796 10.56° C 99% 1007.7 hPa 1.78 mm - 17 W/m² -
1777461491 10.56° C 99% 1007.8 hPa 0 mm - 21 W/m² -
1777461188 10.56° C 99% 1007.8 hPa 0 mm - 6 W/m² -
1777460883 10.56° C 99% 1008 hPa 0 mm - 6 W/m² -
1777460579 10° C 99% 1008 hPa 0 mm - 5 W/m² -
1777460275 10° C 99% 1007.7 hPa 0 mm - 4 W/m² -

* Rain latest hour (hover to see other rain measurements)
** Current wind speed in m/s (hover to see current wind gust speed)